Location: Bothwell
(42.3833°S, 147.0000°E)
Time: 21:20:25
(UTC+11:00)

BEESAT - Pass Details

Date: 29 September 2022
Orbit: 699 x 706 km, 98.5° (Epoch: 25 November)

Event Time Altitude Azimuth Distance (km) Brightness Sun altitude
Exits shadow 20:02:58 21° 8° (N) 1,585 ? -20.0°
Maximum altitude 20:06:14 78° 284° (WNW) 736 ? -20.5°
Drops below altitude 10° 20:11:06 10° 196° (SSW) 2,212 ? -21.3°
Sets 20:13:23 0° 194° (SSW) 3,139 ? -21.7°
